COSMOS 1598

导读

**COSMOS 1598卫星摘要** COSMOS 1598是独联体(CIS,继承自苏联)于1984年9月13日发射的“宇宙”系列卫星,该系列是苏联/俄罗斯历史上规模最大的卫星家族,涵盖军用侦察、科学试验等多种用途。作为冷战时期空间部署的一环,其具体任务细节未公开,推测承担技术试验或情报收集任务,反映了当时苏联在航天领域的持续活动能力。

基本信息
目录编号:
15292
目录名称:
COSMOS 1598
国际标识:
1984-100A
轨道中心:
EARTH
卫星名称:
COSMOS 1598
卫星全名:
--
卫星状态:
在轨 (已飞行15293 天)
发射日期:
1984-09-13 UTC
国别 :
俄罗斯(独联体) (CIS)
星等 :
--
轨道信息
数据来源 国际轨道数据 AOE轨道数据
星历时间 2026-07-28T09:36:18+0800
13小时前
查看轨道信息
2026-07-25T05:00:00+0800
3天前
查看轨道信息
半长轴 7366.259km 7366.259km
偏心率 0.0030994 0.0031047
轨道倾角 82.948° 82.948°
近地点辐角 275.791° 284.838°
升交点赤经 142.436° 144.790°
平近点角 94.312° 155.093°
近地点 965.291km 965.251km
远地点 1010.953km 1010.993km
周期 104.865分钟 104.865分钟
每日圈数 13.731955 13.731953
详细信息
使用方式:
暂无
2D轨道图
3D轨道图
轨道高度分析图
轨道倾角分析图
轨道综合分析图
查看轨道综合分析图